TITAN 3C TRANSTAGE DEB, 1859

Orbit data source: Space-Track

TITAN 3C TRANSTAGE DEB, 1859 is space debris in LEO originally from a launch on Fri, 15 Oct 1965 UTC launched from the Air Force Eastern Test Range (AFETR). Debris objects in space refer to the collection of defunct objects orbiting the Earth. Examples of debris include non-operational satellites, rocket bodies, and fragments generated from explosions, collisions, or faulty payload assembly.

Loading next visibility...
Identifier
1859, 1965-082ES
Orbit
LEO
Country
Flag of USUS
Related business
Manufacturer
Unknown
Mission
Spacecraft
Bus & Motor
Unknown
Mass
Unknown
Launch date (UTC)
1965-10-15 (60 years ago)
Launch vehicle
Unknown
Launch site
Air Force Eastern Test Range (AFETR)
Object type
Payload
Rocket body
Debris
Shape & HBR
Unknown
Radar Cross Section
Medium (>0.1 m² and <1 m²)

Expand to show TLE details & history
Last TLE update: 17 hours ago

TLE from 17 hours ago
0 TITAN 3C TRANSTAGE DEB
1 01859U 65082ES  25259.48594456  .00000526  00000-0  12451-3 0  9991
2 01859  32.1265 310.5970 0067078 111.4277 249.3535 14.48716511147348
Epoch: 2025-09-16T11:39Z
TLE epoch observation values (Epoch: 2025-09-16T11:39:45.609Z)
Latitude
-0.00003°
Longitude
139.98136°
Altitude
745.588 km
Speed
7.475 km/s
True Right ascension
20h 42m 23s
True Declination
0° 00' 00"
Sunlit
Object was in full shadow at epoch
Visualization orbit readout
Latitude
Unknown
Longitude
Unknown
Altitude
Unknown
Speed
Unknown
Apparent Right ascension
Unknown
Apparent Declination
Unknown
Sunlit
N/A
Visualization observer readout
Local Sidereal Time
21:06:27
Azimuth
Unknown
Elevation
Unknown
Doppler factor
Unknown
Orbital elements
Apogee altitude
781.12 km
Perigee altitude
685.714 km
Semi-major axis
7,111.554 km
Eccentricity
0.00671
Inclination
32.1265°
RAAN
310.597°
Arg. of periapsis
111.4277°
True anomaly
248.63635°
Mean anomaly
249.3535°
Eccentric anomaly
248.99471°
Mean motion
3.61906 °/min
Orbital period
99.47 mins
BSTAR
0.00012451
Loading maneuver chart data...
Computing Atmospheric mass density...

Documentation

Showing up to 5 results
|